FLOCK 3P-88 (41982 NORAD) Tracking and Keplerian Element Data

This shows tracking and keplerian element data for the satellite.

Feedback or suggestion? Click here.




ElementValue
Catalog41982
NameFLOCK 3P-88
Epoch Orbit5446
Epoch Day46.15441811
Epoch Year2018
RAAN111.7971
Inclination97.4678
Eccentricity0.0009772
Argument of Perigee69.4392
Mean Anonmoly290.7893
Mean Motion15.23944559
Decay Rate2.901E-05
L11 41982U 17008AL 18046.15441811 .00002901 00000-0 12285-3 0 9997
L22 41982 97.4678 111.7971 0009772 69.4392 290.7893 15.23944559 54466

Live tracking and technical data element details for FLOCK 3P-88 (NORAD 41982). FLOCK 3P-88 can be tracked NOW for your location showing map with azimuth and elevation plus other details from your city location.

Track the satellite on the map from your city or location and see movement details for azimuth, elevation, latitude, longitude, range, height, and movement on the map or in text.







IsCatalogInMostPopularTable: catalog: 41982, numindb: 123
Update: records affected: 1



GetName: 41982 FLOCK 3P-88

Hit Count: updated at: Mon, 19 Nov 2018 14:16:26 GMT